• In Netherlands
  • List of Countries
  • For 7 days
  • Water Temperature
  • Satellite Maps
  • Weather Map
  • Weather Widgets
  • user-avatar
    Login

    Hourly Weather Innsbruck

    Today, 11 December, Monday

    Time Temperature Precipitation Wind Pressure Humidity
    00:00 -11°C° 0 mm 4 mps 578 mmHg 85%
    01:00 -10°C° 0 mm 3 mps 578 mmHg 85%
    02:00 -10°C° 0 mm 4 mps 578 mmHg 85%
    03:00 -10°C° 0 mm 4 mps 578 mmHg 85%
    04:00 -9°C° 0 mm 4 mps 578 mmHg 86%
    05:00 -9°C° 0.1 mm 4 mps 578 mmHg 86%
    06:00 -8°C° 0.1 mm 4 mps 578 mmHg 86%
    07:00 -7°C° 0 mm 4 mps 578 mmHg 86%
    08:00 -7°C° 0.1 mm 4 mps 578 mmHg 86%
    09:00 -6°C° 0.1 mm 5 mps 578 mmHg 85%
    10:00 -6°C° 0.1 mm 5 mps 578 mmHg 85%
    11:00 -5°C° 0.1 mm 5 mps 578 mmHg 86%
    12:00 -4°C° 0.1 mm 5 mps 577 mmHg 87%
    13:00 -4°C° 0.1 mm 5 mps 577 mmHg 87%
    14:00 -4°C° 0.1 mm 5 mps 577 mmHg 88%
    15:00 -4°C° 0.1 mm 5 mps 577 mmHg 89%
    16:00 -4°C° 0.1 mm 5 mps 576 mmHg 90%
    17:00 -4°C° 0.3 mm 4 mps 577 mmHg 90%
    18:00 -4°C° 0.3 mm 4 mps 577 mmHg 91%
    19:00 -4°C° 0.3 mm 3 mps 577 mmHg 92%
    20:00 -4°C° 1.3 mm 3 mps 578 mmHg 93%
    21:00 -4°C° 1.3 mm 3 mps 578 mmHg 94%
    22:00 -5°C° 1.3 mm 3 mps 579 mmHg 95%
    23:00 -5°C° 2.1 mm 3 mps 579 mmHg 96%

    Tomorrow, 12 December, Tuesday

    Time Temperature Precipitation Wind Pressure Humidity
    00:00 -5°C° 2.1 mm 3 mps 579 mmHg 96%
    01:00 -4°C° 2.1 mm 2 mps 580 mmHg 96%
    02:00 -4°C° 1.2 mm 2 mps 580 mmHg 96%
    03:00 -4°C° 1.2 mm 2 mps 581 mmHg 96%
    04:00 -4°C° 1.2 mm 2 mps 581 mmHg 96%
    05:00 -5°C° 0.7 mm 2 mps 582 mmHg 96%
    06:00 -5°C° 0.7 mm 2 mps 583 mmHg 96%
    07:00 -5°C° 0.7 mm 2 mps 584 mmHg 96%
    08:00 -5°C° 0.6 mm 2 mps 585 mmHg 96%
    09:00 -6°C° 0.6 mm 2 mps 586 mmHg 95%
    10:00 -6°C° 0.6 mm 2 mps 586 mmHg 95%
    11:00 -6°C° 0.6 mm 2 mps 587 mmHg 95%
    12:00 -6°C° 0.6 mm 2 mps 587 mmHg 94%
    13:00 -6°C° 0.6 mm 1 mps 588 mmHg 93%
    14:00 -6°C° 0.5 mm 1 mps 588 mmHg 94%
    15:00 -7°C° 0.5 mm 1 mps 588 mmHg 95%
    16:00 -7°C° 0.5 mm 1 mps 588 mmHg 96%
    17:00 -8°C° 0.4 mm 1 mps 589 mmHg 96%
    18:00 -10°C° 0.4 mm 2 mps 589 mmHg 96%
    19:00 -10°C° 0.4 mm 2 mps 589 mmHg 96%
    20:00 -12°C° 0.2 mm 2 mps 590 mmHg 95%
    21:00 -12°C° 0.2 mm 2 mps 590 mmHg 95%
    22:00 -12°C° 0.2 mm 2 mps 590 mmHg 94%
    23:00 -12°C° 0.1 mm 2 mps 591 mmHg 94%

    Day after tomorrow, 13 December, Wednesday

    Time Temperature Precipitation Wind Pressure Humidity
    00:00 -13°C° 0.1 mm 2 mps 591 mmHg 93%
    01:00 -13°C° 0.1 mm 2 mps 591 mmHg 93%
    02:00 -15°C° 0 mm 2 mps 590 mmHg 91%
    03:00 -16°C° 0 mm 2 mps 590 mmHg 90%
    04:00 -15°C° 0 mm 1 mps 589 mmHg 89%
    05:00 -15°C° 0 mm 1 mps 589 mmHg 84%
    06:00 -16°C° 0 mm 1 mps 589 mmHg 80%
    07:00 -16°C° 0 mm 1 mps 589 mmHg 76%
    08:00 -16°C° 0 mm 2 mps 590 mmHg 74%
    09:00 -14°C° 0 mm 2 mps 591 mmHg 72%
    10:00 -12°C° 0 mm 2 mps 592 mmHg 70%
    11:00 -10°C° 0 mm 2 mps 592 mmHg 71%
    12:00 -8°C° 0 mm 2 mps 592 mmHg 71%
    13:00 -6°C° 0 mm 2 mps 592 mmHg 71%
    14:00 -7°C° 0 mm 2 mps 591 mmHg 74%
    15:00 -8°C° 0 mm 2 mps 590 mmHg 77%
    16:00 -10°C° 0 mm 3 mps 589 mmHg 80%
    17:00 -10°C° 0 mm 3 mps 589 mmHg 80%
    18:00 -12°C° 0 mm 3 mps 589 mmHg 80%
    19:00 -12°C° 0 mm 3 mps 589 mmHg 80%
    20:00 -12°C° 0 mm 3 mps 589 mmHg 79%
    21:00 -12°C° 0 mm 3 mps 589 mmHg 78%
    22:00 -12°C° 0 mm 3 mps 588 mmHg 77%
    23:00 -12°C° 0 mm 3 mps 588 mmHg 76%

    14 December, Thursday

    Time Temperature Precipitation Wind Pressure Humidity
    00:00 -10°C° 0 mm 3 mps 588 mmHg 75%
    01:00 -10°C° 0 mm 3 mps 588 mmHg 73%
    02:00 -10°C° 0.1 mm 3 mps 587 mmHg 74%
    03:00 -10°C° 0.1 mm 3 mps 587 mmHg 75%
    04:00 -10°C° 0.1 mm 3 mps 586 mmHg 75%
    05:00 -9°C° 0.1 mm 3 mps 586 mmHg 76%
    06:00 -9°C° 0.1 mm 3 mps 587 mmHg 77%
    07:00 -9°C° 0.1 mm 3 mps 587 mmHg 79%
    08:00 -8°C° 0.1 mm 3 mps 587 mmHg 80%
    09:00 -7°C° 0.1 mm 3 mps 587 mmHg 82%
    10:00 -7°C° 0.1 mm 3 mps 587 mmHg 83%
    11:00 -6°C° 0.3 mm 3 mps 586 mmHg 85%
    12:00 -6°C° 0.3 mm 3 mps 586 mmHg 86%
    13:00 -5°C° 0.3 mm 3 mps 586 mmHg 88%
    14:00 -6°C° 0.1 mm 3 mps 585 mmHg 88%
    15:00 -6°C° 0.1 mm 3 mps 584 mmHg 89%
    16:00 -7°C° 0.1 mm 3 mps 584 mmHg 90%
    17:00 -7°C° 0.2 mm 3 mps 584 mmHg 89%
    18:00 -7°C° 0.2 mm 3 mps 583 mmHg 88%
    19:00 -7°C° 0.2 mm 3 mps 583 mmHg 87%
    20:00 -7°C° 0.5 mm 3 mps 583 mmHg 88%
    21:00 -8°C° 0.5 mm 3 mps 583 mmHg 89%
    22:00 -8°C° 0.5 mm 3 mps 583 mmHg 90%
    23:00 -8°C° 1 mm 3 mps 583 mmHg 91%

    15 December, Friday

    Time Temperature Precipitation Wind Pressure Humidity
    00:00 -8°C° 1 mm 2 mps 583 mmHg 92%
    01:00 -8°C° 1 mm 2 mps 583 mmHg 93%
    02:00 -8°C° 0.9 mm 2 mps 583 mmHg 94%
    03:00 -7°C° 0.9 mm 1 mps 583 mmHg 94%
    04:00 -7°C° 0.9 mm 1 mps 582 mmHg 95%
    05:00 -7°C° 0.8 mm 1 mps 582 mmHg 95%
    06:00 -7°C° 0.8 mm 1 mps 582 mmHg 96%
    07:00 -7°C° 0.8 mm 1 mps 582 mmHg 96%
    08:00 -7°C° 0.5 mm 1 mps 582 mmHg 95%
    09:00 -7°C° 0.5 mm 1 mps 582 mmHg 95%
    10:00 -7°C° 0.5 mm 1 mps 582 mmHg 94%
    11:00 -8°C° 0.4 mm 2 mps 582 mmHg 93%
    12:00 -8°C° 0.4 mm 2 mps 582 mmHg 93%
    13:00 -8°C° 0.4 mm 2 mps 582 mmHg 92%
    14:00 -8°C° 0.3 mm 2 mps 582 mmHg 92%
    15:00 -9°C° 0.3 mm 2 mps 582 mmHg 92%
    16:00 -9°C° 0.3 mm 2 mps 581 mmHg 92%
    17:00 -10°C° 0 mm 2 mps 581 mmHg 91%
    18:00 -12°C° 0 mm 2 mps 581 mmHg 91%
    19:00 -13°C° 0 mm 2 mps 581 mmHg 90%
    20:00 -13°C° 0 mm 2 mps 581 mmHg 88%
    21:00 -13°C° 0 mm 2 mps 582 mmHg 87%
    22:00 -13°C° 0 mm 2 mps 582 mmHg 85%
    23:00 -13°C° 0.3 mm 2 mps 583 mmHg 87%

    16 December, Saturday

    Time Temperature Precipitation Wind Pressure Humidity
    00:00 -13°C° 0.3 mm 2 mps 584 mmHg 89%
    01:00 -13°C° 0.3 mm 2 mps 584 mmHg 91%
    02:00 -13°C° 0.1 mm 2 mps 584 mmHg 91%
    03:00 -14°C° 0.1 mm 2 mps 585 mmHg 91%
    04:00 -14°C° 0.1 mm 2 mps 585 mmHg 92%
    05:00 -14°C° 0.1 mm 2 mps 585 mmHg 91%
    06:00 -14°C° 0.1 mm 2 mps 586 mmHg 90%
    07:00 -14°C° 0.1 mm 2 mps 586 mmHg 89%
    08:00 -14°C° 0.1 mm 2 mps 587 mmHg 89%
    09:00 -13°C° 0.1 mm 2 mps 588 mmHg 88%
    10:00 -12°C° 0.1 mm 2 mps 588 mmHg 87%
    11:00 -12°C° 0.1 mm 2 mps 589 mmHg 85%
    12:00 -10°C° 0.1 mm 2 mps 589 mmHg 82%
    13:00 -9°C° 0.1 mm 2 mps 589 mmHg 80%
    14:00 -10°C° 0.1 mm 2 mps 589 mmHg 82%
    15:00 -10°C° 0.1 mm 1 mps 589 mmHg 85%
    16:00 -11°C° 0.1 mm 1 mps 589 mmHg 88%
    17:00 -12°C° 0.1 mm 1 mps 589 mmHg 88%
    18:00 -12°C° 0.1 mm 1 mps 589 mmHg 89%
    19:00 -13°C° 0.1 mm 1 mps 589 mmHg 89%
    20:00 -14°C° 0.1 mm 1 mps 589 mmHg 88%
    21:00 -14°C° 0.1 mm 1 mps 589 mmHg 88%
    22:00 -14°C° 0.1 mm 1 mps 589 mmHg 87%
    23:00 -15°C° 0 mm 1 mps 589 mmHg 86%
    Show more